GAOFEN-10R

Last updated on Fri Jul 10 2026 00:02:50 GMT+0000 (Coordinated Universal Time)

1 44622U 19066A 26190.28400922 .00000780 00000+0 10254-3 0 9994 2 44622 98.0512 144.0249 0007100 68.3820 291.8149 14.83049096365657
UTC large
Height (km)
Speed (km/s)
/
Latitude / Longitude
Inclination (degrees)
Orbital Period (minutes)
Azimuth
Elevation
Range (km)
Doppler Factor

Next 0 passes for location: London (51.5072 / 0.1276)

No passes found over London.
GAOFEN-10R